Mercury, NV

12:02 PM PST on February 11, 2016 (GMT -0800)
Mercury

Weather History for KDRA - January, 2013

Change the Weather History Date:

Sunday, January 20, 2013

  Actual Average Record
Temperature  
Mean Temperature 46 °F 44 °F  
Max Temperature 63 °F 56 °F 71 °F (1994)
Min Temperature 30 °F 33 °F 21 °F (1988)
Degree Days  
Heating Degree Days 18    
Cooling Degree Days 0    
Moisture  
Dew Point 5 °F    
Average Humidity 18    
Maximum Humidity 35    
Minimum Humidity 4    
Precipitation  
Precipitation 0.00 in 0.02 in 0.04 in (1982)
Month to date precipitation 0.51  
Year to date precipitation 0.51  
Sea Level Pressure  
Sea Level Pressure 30.21 in    
Wind  
Wind Speed 10 mph (ENE)    
Max Wind Speed 20 mph    
Max Gust Speed -    
Visibility 10 miles    
Events      
T = Trace of Precipitation, MM = Missing Value Source: NWS Daily Summary

Daily Weather History Graph

Daily Weather History Graph

Search for Another Location

Airport or City:

Trip Planner

Search our weather history database for the weather conditions in past years. The results will help you decide how hot, cold, wet, or windy it might be!

Date:

Astronomy

Jan. 20, 2013 Rise Set
Actual Time 6:53 AM PST 4:57 PM PST
Civil Twilight 6:25 AM PST 5:25 PM PST
Nautical Twilight 5:54 AM PST 5:56 PM PST
Astronomical Twilight 5:23 AM PST 6:27 PM PST
Moon 12:00 PM PST (1/20) 1:30 AM PST (1/20)
Length of Visible Light 10h 59m
Length of Day
10h 04m
Waxing Gibbous, 67% of the Moon is Illuminated
Jan 20
Waxing Gibbous
Jan 26
Full
Feb 3
Last Quarter
Feb 9
New
Feb 17
First Quarter

Hourly Weather History & Observations

Time (PST) Temp. Windchill Dew Point Humidity Pressure Visibility Wind Dir Wind Speed Gust Speed Precip Events Conditions
12:52 AM 45.0 °F 37.9 °F 8.1 °F 22% 30.23 in 10.0 mi NE 16.1 mph - N/A   Clear
1:52 AM 35.1 °F 31.0 °F 6.1 °F 30% 30.25 in 10.0 mi SE 4.6 mph - N/A   Clear
2:52 AM 34.0 °F - 7.0 °F 32% 30.25 in 10.0 mi Calm Calm - N/A   Clear
3:52 AM 34.0 °F 29.8 °F 7.0 °F 32% 30.24 in 10.0 mi East 4.6 mph - N/A   Clear
4:52 AM 32.0 °F 27.5 °F 7.0 °F 35% 30.25 in 10.0 mi ESE 4.6 mph - N/A   Clear
6:52 AM 33.1 °F 27.7 °F 7.0 °F 34% 30.26 in 10.0 mi Variable 5.8 mph - N/A   Clear
7:52 AM 44.1 °F 36.8 °F 8.1 °F 23% 30.26 in 10.0 mi NNE 16.1 mph - N/A   Clear
8:52 AM 48.9 °F - 7.0 °F 18% 30.26 in 10.0 mi NNE 13.8 mph - N/A   Clear
9:52 AM 53.1 °F - 7.0 °F 16% 30.26 in 10.0 mi NNE 17.3 mph - N/A   Clear
10:52 AM 55.9 °F - 7.0 °F 14% 30.24 in 10.0 mi NNE 16.1 mph - N/A   Clear
11:52 AM 59.0 °F - 6.1 °F 12% 30.21 in 10.0 mi NNE 11.5 mph - N/A   Clear
12:52 PM 60.1 °F - 3.9 °F 11% 30.17 in 10.0 mi Calm Calm - N/A   Clear
1:52 PM 63.0 °F - 3.0 °F 9% 30.16 in 10.0 mi SE 5.8 mph - N/A   Clear
2:52 PM 64.0 °F - 1.9 °F 8% 30.14 in 10.0 mi SE 6.9 mph - N/A   Clear
3:52 PM 63.0 °F - 1.0 °F 8% 30.14 in 10.0 mi ESE 10.4 mph - N/A   Clear
4:52 PM 57.9 °F - 1.9 °F 10% 30.17 in 10.0 mi East 8.1 mph - N/A   Clear
5:52 PM 51.1 °F - 5.0 °F 15% 30.19 in 10.0 mi ENE 5.8 mph - N/A   Clear
6:52 PM 50.0 °F - 5.0 °F 16% 30.20 in 10.0 mi NE 12.7 mph - N/A   Clear
7:52 PM 48.0 °F - 5.0 °F 17% 30.20 in 10.0 mi NNE 16.1 mph - N/A   Clear
8:52 PM 46.9 °F - 5.0 °F 18% 30.20 in 10.0 mi NNE 18.4 mph - N/A   Clear
9:52 PM 46.0 °F 39.9 °F 5.0 °F 19% 30.21 in 10.0 mi NE 13.8 mph - N/A   Clear
10:52 PM 46.0 °F 38.5 °F 5.0 °F 19% 30.20 in 10.0 mi NNE 19.6 mph - N/A   Clear
11:52 PM 45.0 °F 37.9 °F 5.0 °F 19% 30.19 in 10.0 mi NNE 16.1 mph - N/A   Clear